Flag for Brazil Weather past 2 weeks in Pirassununga, São Paulo, Brazil

Now
50 °F

Sunny.


Feels Like: 50 °F
Forecast: 50 / 87 °F
Wind: No wind

Location: Pirassununga Airport

Current Time: Aug 3, 2015 at 7:50:10 AM

Latest Report: Aug 3, 2015 at 7:00 AM


Visibility: 10 mi

Pressure: 30.15 "Hg (27.94 "Hg at 632m altitude)

Humidity: 88%

Dew point: 46 °F

Location of PirassunungaLocation

Historic Weather in Pirassununga — Graph

°F

Pirassununga temperature yesterday

Maximum temperature yesterday: 84 °F (at 1:00 PM)
Minimum temperature yesterday: 48 °F (at 6:00 AM)
Average temperature yesterday: 70 °F

Past Weeks' High & Low Weather Summary

 TemperatureHumidityPressure
High84 °F (Jul 20, 3:00 PM)100% (Jul 25, 6:00 AM)30.30 "Hg (Jul 25, 6:00 AM)
Low46 °F (Jul 28, 6:00 AM)25% (Jul 27, 4:00 PM)30.04 "Hg (Jul 21, 2:00 PM)
Average69 °F60%30.15 "Hg
* Reported Jul 19 6:00 AM — Aug 3 6:00 AM, Pirassununga, Weather by CustomWeather, © 2015

Note: Actual official high and low records may vary slightly from our data, if they occured in-between our weather recording intervals... More about our weather records

Advertising

Pirassununga weather history for previous 24 hours

 ConditionsComfort  
Time TempWeatherWind HumidityBarometerVisibility
6:00 AM
Mon, Aug 3
48 °FSunny.2 mph94%30.12 "Hg10 mi
11:00 PM
Sun, Aug 2
57 °FClear.2 mph82%30.12 "Hg10 mi
10:00 PM59 °FClear.2 mph77%30.09 "Hg10 mi
9:00 PM61 °FClear.2 mph77%30.09 "Hg10 mi
8:00 PM64 °FClear.3 mph68%30.09 "Hg10 mi
7:00 PM66 °FClear.2 mph64%30.07 "Hg10 mi
6:00 PM77 °FClear.No wind39%30.07 "Hg10 mi
5:00 PM82 °FClear.3 mph28%30.04 "Hg10 mi
4:00 PM84 °FSunny.5 mph27%30.04 "Hg10 mi
3:00 PM84 °FSunny.7 mph25%30.07 "Hg10 mi
2:00 PM84 °FSunny.3 mph27%30.07 "Hg10 mi
1:00 PM84 °FSunny.6 mph29%30.09 "Hg10 mi
12:00 PM81 °FSunny.7 mph32%30.12 "Hg10 mi
11:00 AM79 °FSunny.8 mph39%30.15 "Hg10 mi
10:00 AM73 °FSunny.6 mph53%30.18 "Hg10 mi
9:00 AM63 °FSunny.3 mph73%30.18 "Hg10 mi
8:00 AM55 °FSunny.2 mph88%30.15 "Hg10 mi
7:00 AM48 °FSunny.2 mph94%30.12 "Hg10 mi
Weather by CustomWeather, © 2015

See weather overviewHow to use our weather pages